Find Kosmos-2584

NORAD ID: 63130 Int'l Des: 2025-042 Owner: VVKOV/IACG Country: RU Constellation: GLONASS operational
MEOCIRCULAR

Live-Position

3D-Globus wird geladen...

Über Kosmos-2584

Beschreibung wird geladen...

Nächste Überflüge

Passes for default location (London). Set your location on the main map for personalized predictions.

Höhenverlauf

Loading altitude history...

Zweizeiliger Elementsatz

1 63130U 25042A 26124.03004175 -.00000016 00000-0 00000+0 0 9998
2 63130 65.0608 74.3024 0006587 236.4269 123.4829 2.13103835 9103
Epoch: 4. Mai 2026 • Age: 44 hours

Aktueller Status

Höhe 19140.5 km
Geschwindigkeit 3.95 km/s
Subsatellitenpunkt -41.98°S, 118.42°W
Startdatum 2. März 2025
Alter 1.1 years
Typ other

Technische Details

Klassifizierung Payload
Masse 974.00 kg
Trockenmasse 800.00 kg
Gesamtmasse 974.00 kg
Länge 2.00 m
Durchmesser 1.00 m
Spannweite 5.00 m
Form Box + 2 Pan
Hersteller RESH
Bus-Typ KAUR-4N
Phasenstatus In Orbit
Besitzer/Staat VVKOV/IACG/RU

Most Searched